Всё
Mangaia Airport (Mangaia (Auau Enua)) MGS Погода
|
Mangaia (Auau Enua) (MGS / NCMG)
Безоблачно
Легкий ветер |
|
22 °C |
There is no TAF data available at MGS or any nearby airports.
Недавняя история METAR для MGS
| Date | Time (-10) | Flight Rules | Wind Dir. | Speed | Type | Height AGL (ft) | Visibility | Temp (°C) | Temp (°F) | Dew Point (°C) | Dew Point (°F) | Rel. Humid. | Pressure | Density Altitude | Remarks |
|---|---|---|---|---|---|---|---|---|---|---|---|---|---|---|---|
| 03-май | 22:00 | n/a | 140° | 4 kt | Missing | 22° | 71° | 21° | 69° | 94% | 1013 mb | 857 ft | |||
| 03-май | 21:00 | n/a | 100° | 3 kt | Missing | 22° | 71° | 21° | 69° | 94% | 1012 mb | 887 ft | |||
| 03-май | 20:00 | n/a | 130° | 3 kt | Missing | 22° | 71° | 22° | 71° | 100% | 1011 mb | 916 ft | |||
| 03-май | 19:00 | n/a | 120° | 3 kt | Missing | 23° | 73° | 22° | 71° | 94% | 1011 mb | 1,036 ft | |||
| 03-май | 18:00 | n/a | 130° | 4 kt | Missing | 24° | 75° | 22° | 71° | 89% | 1010 mb | 1,186 ft | |||
| 03-май | 17:00 | n/a | 140° | 5 kt | Missing | 24° | 75° | 22° | 71° | 89% | 1010 mb | 1,186 ft | |||
| 03-май | 16:00 | n/a | 140° | 6 kt | Missing | 25° | 77° | 22° | 71° | 83% | 1010 mb | 1,306 ft | |||
| 03-май | 15:00 | n/a | 140° | 8 kt | Missing | 25° | 77° | 22° | 71° | 83% | 1009 mb | 1,335 ft | |||
| 03-май | 14:00 | n/a | 160° | 6 kt | Missing | 24° | 75° | 23° | 73° | 94% | 1010 mb | 1,186 ft | |||
| 03-май | 13:00 | n/a | 220° | 6 kt | Missing | 24° | 75° | 23° | 73° | 94% | 1011 mb | 1,156 ft | |||
| 03-май | 12:00 | n/a | 220° | 6 kt | Missing | 24° | 75° | 23° | 73° | 94% | 1011 mb | 1,156 ft | |||
| 03-май | 11:00 | n/a | 160° | 4 kt | Missing | 25° | 77° | 23° | 73° | 89% | 1011 mb | 1,276 ft | |||
| 03-май | 10:00 | n/a | 200° | 3 kt | Missing | 27° | 80° | 23° | 73° | 79% | 1011 mb | 1,516 ft | |||
| 03-май | 09:00 | n/a | 240° | 2 kt | Missing | 26° | 78° | 24° | 75° | 89% | 1011 mb | 1,396 ft | |||
| 03-май | 08:00 | n/a | 190° | 2 kt | Missing | 24° | 75° | 23° | 73° | 94% | 1010 mb | 1,186 ft | |||
| 03-май | 07:00 | n/a | 140° | 2 kt | Missing | 23° | 73° | 23° | 73° | 100% | 1010 mb | 1,066 ft | |||
| 03-май | 06:00 | n/a | 150° | 2 kt | Missing | 24° | 75° | 23° | 73° | 94% | 1009 mb | 1,215 ft | |||
| 03-май | 05:00 | n/a | 220° | 3 kt | Missing | 25° | 77° | 23° | 73° | 89% | 1009 mb | 1,335 ft | |||
| 03-май | 04:00 | n/a | 230° | 2 kt | Missing | 24° | 75° | 23° | 73° | 94% | 1009 mb | 1,215 ft | |||
| 03-май | 03:00 | n/a | 150° | 2 kt | Missing | 24° | 75° | 23° | 73° | 94% | 1009 mb | 1,215 ft | |||
| 03-май | 02:00 | n/a | 280° | 2 kt | Missing | 24° | 75° | 23° | 73° | 94% | 1010 mb | 1,186 ft | |||
| 03-май | 01:00 | n/a | 270° | 3 kt | Missing | 24° | 75° | 23° | 73° | 94% | 1010 mb | 1,186 ft | |||
| 03-май | 00:00 | n/a | 240° | 1 kt | Missing | 24° | 75° | 23° | 73° | 94% | 1010 mb | 1,186 ft | |||
| 02-май | 23:00 | n/a | 270° | 4 kt | Missing | 24° | 75° | 23° | 73° | 94% | 1009 mb | 1,215 ft |
Вход
| Ваш браузер не поддерживается.. обновите веб-браузер |
